Weather in Istra

Russia / Moscow Oblast     55°46′27″N   37°08′58″E
temp.,
°C
wind,
m/s
gust,
m/s
humid.,
%
clouds,
%
prec.,
mm/h
press.,
hPa
HPBL,
m
1 march, mon
mon100:00−6ne119785 0.1 102121
03:00−8ne009682 0.1 102321
06:00−8w129716 0.0 102321
09:00−5w259750 0.1 1025234
12:00−2wsw359390 0.0 1023354
15:000wsw599583 0.0 1022656
18:00+1wsw51191100 0.0 1020554
21:00+1w51293100 0.0 1018659
2 march, tue
tue200:00+1w51392100 0.0 1015625
03:00+1wnw51293100 0.0 1013872
06:00+1w51293100 0.0 1011677
09:00+1wnw41196100 0.1 1010728
12:00+1wnw4995100 0.2 1009654
15:00+1nw41091100 0.3 1009879
18:00−1nw4128770 0.1 1009526
21:00−1nnw5118980 0.1 1011941
3 march, wed
wed300:00−2nw5119079 0.1 10131095
03:00−3nnw5118587 0.1 1014890
06:00−5nw5128726 0.0 1016878
09:00−4nw5118428 0.0 1018901
12:00−1wnw598644 0.0 1017737
15:00−1wnw598568 0.1 1016853
18:00−1wnw51084100 0.0 1015808
21:00−1w51088100 0.1 1015800
4 march, thu
thu400:00−1wsw41189100 0.1 1012812
03:00−1wsw6148999 0.1 1008730
06:00−1wsw6158694 0.0 1004788
09:00−1w7148597 0.0 10021066
12:000w61290100 0.1 10001033
15:000wsw61199100 0.6 1000896
18:00−2wnw41184100 2.2 1000860
21:00−3nw3987100 2.2 1003449
5 march, fri
fri500:00−6wnw379213 0.0 1005227
03:00−7nw379522 0.0 1006251
06:00−9nnw239616 0.0 100876
09:00−8nw12938 0.0 1009140
12:00−4nw12800 0.0 1010541
15:00−3wnw11747 0.0 1011717
18:00−6se11842 0.0 101121
21:00−8s11881 0.0 101221